Hourly Data Report for July 12, 2021

LYNN LAKE
MANITOBA
Current Station Operator: NAVCAN

56°51'50.000" N
101°04'34.000" W
356.60 m
5061645
71078
YYL

Download Data

Hourly Data (July 2021)
Hourly Data Report for July 12, 2021
TIME
LST
Temp Definition
°C
Dew Point Definition
°C
Rel Hum Definition
%
Precip. Amount Definition
mm

Wind Dir Definition
10's deg

Wind Spd Definition
km/h
Visibility Definition
km
Stn Press Definition
kPa
Hmdx Definition


Wind Chill Definition


Weather Definition


00:00 17.3 13.5 78 0.0 26 8 16.1 96.38     LegendNANA
01:00 15.7 12.9 83 0.0 24 9 16.1 96.44     LegendNANA
02:00 15.6 13.0 84 0.0 25 9 16.1 96.52     LegendNANA
03:00 16.2 12.8 80 0.0 26 13 16.1 96.45     LegendNANA
04:00 15.2 12.5 84 0.0 25 13 16.1 96.43     LegendNANA
05:00 16.0 12.6 80 0.0 26 17 16.1 96.38     LegendNANA
06:00 16.8 12.9 77 0.0 26 17 12.9 96.41     LegendNANA
07:00 17.4 13.2 76 0.0 28 24 12.9 96.43     LegendNANA
08:00 16.6 12.3 76 0.0 32 22 16.1 96.50     LegendNANA
09:00 14.7 12.1 84 0.0 31 24 16.1 96.55     Rain
10:00 15.1 11.4 78 0.0 31 26 16.1 96.64     LegendNANA
11:00 15.7 11.6 76 0.0 31 26 16.1 96.71     LegendNANA
12:00 15.3 12.9 85 0.0 34 30 6.4 96.80     Fog
13:00 16.8 12.1 74 0.0 33 21 16.1 96.85     LegendNANA
14:00 18.2 10.5 60 0.0 35 28 16.1 96.89     LegendNANA
15:00 19.5 10.2 55 0.0 33 21 16.1 96.90     LegendNANA
16:00 19.5 9.2 51 0.0 36 24 16.1 96.94     LegendNANA
17:00 19.6 7.9 46 0.0 34 26 16.1 96.97     LegendNANA
18:00 19.5 7.9 47 0.0 31 24 16.1 97.00     LegendNANA
19:00 19.6 7.2 44 0.0 33 22 16.1 97.03     LegendNANA
20:00 17.8 8.0 52 0.0 32 13 16.1 97.05     LegendNANA
21:00 17.0 8.7 58 0.0 30 13 16.1 97.10     LegendNANA
22:00 15.7 9.2 65 0.0 29 11 16.1 97.15     LegendNANA
23:00 14.4 9.7 73 0.0 30 13 16.1 97.18     LegendNANA

Notes on Data Quality.

Legend

  • E = Estimated
  • M = Missing
  • NA = Not Available*
  • [empty] = Indicates an unobserved value
Date modified: